Location: Shepherdstown, WV
(39.4326°N, 77.8042°W)
Time: 18:53:22
(UTC-04:00)

Vanguard 3 - Pass Details

Date: 26 July 2021
Orbit: 510 x 3260 km, 33.3° (Epoch: 18 September)

Event Time Altitude Azimuth Distance (km) Brightness Sun altitude
Rises 23:20:16 0° 268° (W) 6,982 12.3 -25.3°
Reaches altitude 10° 23:24:46 10° 267° (W) 6,105 11.9 -25.7°
Maximum altitude 23:44:39 70° 189° (S) 3,193 9.8 -27.5°
Enters shadow 23:56:13 24° 114° (ESE) 4,145 10.3 -28.4°
